Weather History for Beckley, WV

Change the Weather History Date:

Wednesday, October 9, 2013

  Actual Average Record
Temperature  
Mean Temperature 55 °F 55 °F  
Max Temperature 66 °F 65 °F 86 °F (1939)
Min Temperature 44 °F 45 °F 23 °F (1907)
Degree Days  
Heating Degree Days 10 10  
Month to date heating degree days 36 82  
Since 1 July heating degree days 145 216  
Cooling Degree Days 0 0  
Month to date cooling degree days 15 2  
Year to date cooling degree days 615 552  
Growing Degree Days 5 (Base 50)    
Moisture  
Dew Point 37 °F    
Average Humidity 53    
Maximum Humidity 76    
Minimum Humidity 29    
Precipitation  
Precipitation 0.00 in 0.09 in 1.00 in (1922)
Month to date precipitation 0.43 0.74  
Year to date precipitation 32.12 33.41  
Snow  
Snow 0.00 in - - ()
Month to date snowfall 0.0  
Since 1 September snowfall 0.0  
Snow Depth 0.00 in    
Sea Level Pressure  
Sea Level Pressure 30.23 in    
Wind  
Wind Speed 6 mph (SE)    
Max Wind Speed 17 mph    
Max Gust Speed 22 mph    
Visibility 10 miles    
Events      
T = Trace of Precipitation, MM = Missing Value Source: NWS Daily Summary

Daily Weather History Graph

Daily Weather History Graph

Search for Another Location

Airport:

Trip Planner

Search our weather history database for the weather conditions in past years. The results will help you decide how hot, cold, wet, or windy it might be!

Date:

Astronomy

Oct. 09, 2013 Rise Set
Actual Time 7:27 AM EDT 6:55 PM EDT
Civil Twilight 7:01 AM EDT 7:21 PM EDT
Nautical Twilight 6:30 AM EDT 7:51 PM EDT
Astronomical Twilight 6:00 AM EDT 8:22 PM EDT
Moon 12:17 PM EDT (10/9) 10:32 PM EDT (10/9)
Length of Visible Light 12h 20m
Length of Day
11h 27m
Waxing Crescent, 25% of the Moon is Illuminated
Oct 9
Waxing Crescent
Oct 11
First Quarter
Oct 18
Full
Oct 26
Last Quarter
Nov 3
New

Hourly Weather History & Observations

Time (EDT) Temp. Windchill Dew Point Humidity Pressure Visibility Wind Dir Wind Speed Gust Speed Precip Events Conditions
12:51 AM 48.9 °F - 37.9 °F 66% 30.23 in 10.0 mi ESE 3.5 mph - N/A   Clear
1:51 AM 48.9 °F - 37.9 °F 66% 30.22 in 10.0 mi East 5.8 mph - N/A   Clear
2:51 AM 48.9 °F - 39.0 °F 69% 30.22 in 10.0 mi Variable 3.5 mph - N/A   Clear
3:51 AM 48.9 °F - 39.0 °F 69% 30.19 in 10.0 mi East 3.5 mph - N/A   Clear
4:51 AM 46.9 °F - 37.9 °F 71% 30.21 in 10.0 mi SE 5.8 mph - N/A   Clear
5:51 AM 46.9 °F - 39.0 °F 74% 30.22 in 10.0 mi Variable 4.6 mph - N/A   Clear
6:51 AM 45.0 °F 42.6 °F 37.9 °F 76% 30.24 in 10.0 mi SE 4.6 mph - N/A   Clear
7:51 AM 45.0 °F 42.6 °F 37.0 °F 74% 30.25 in 10.0 mi ESE 4.6 mph - N/A   Clear
9:51 AM 53.1 °F - 37.9 °F 57% 30.28 in 10.0 mi ESE 17.3 mph 21.9 mph N/A   Clear
10:51 AM 57.0 °F - 39.0 °F 51% 30.29 in 10.0 mi SSE 8.1 mph - N/A   Clear
11:51 AM 59.0 °F - 39.0 °F 48% 30.28 in 10.0 mi SE 9.2 mph 16.1 mph N/A   Clear
12:51 PM 60.1 °F - 39.0 °F 46% 30.27 in 10.0 mi SE 10.4 mph - N/A   Clear
1:51 PM 63.0 °F - 35.1 °F 35% 30.23 in 10.0 mi South 6.9 mph - N/A   Clear
3:51 PM 66.0 °F - 34.0 °F 30% 30.18 in 10.0 mi Variable 5.8 mph - N/A   Clear
4:51 PM 64.9 °F - 34.0 °F 32% 30.19 in 10.0 mi SSE 8.1 mph - N/A   Clear
5:51 PM 63.0 °F - 34.0 °F 34% 30.20 in 10.0 mi SE 6.9 mph - N/A   Clear
6:51 PM 57.9 °F - 36.0 °F 44% 30.21 in 10.0 mi Calm Calm - N/A   Clear
7:51 PM 52.0 °F - 37.0 °F 57% 30.23 in 10.0 mi ESE 4.6 mph - N/A   Clear
8:51 PM 52.0 °F - 36.0 °F 54% 30.22 in 10.0 mi SSE 5.8 mph - N/A   Clear
9:51 PM 50.0 °F - 35.1 °F 57% 30.22 in 10.0 mi Calm Calm - N/A   Clear
10:51 PM 50.0 °F - 35.1 °F 57% 30.20 in 10.0 mi Calm Calm - N/A   Clear